Weather in Sterlitamak

Russia / Republic of Bashkortostan     53°37′49″N   55°55′50″E
temp.,
°C
wind,
m/s
gust,
m/s
humid.,
%
clouds,
%
prec.,
mm/h
press.,
hPa
HPBL,
m
24 september, fri
fri2423:00+9se31057100 0.0 1025188
02:00+10se51250100 0.0 1025403
05:00+10sse51349100 0.0 1025544
08:00+10sse41148100 0.0 1025553
11:00+11se61340100 0.0 1024679
14:00+12se51135100 0.0 1023805
17:00+14se2634100 0.0 1022592
20:00+13ese41037100 0.0 1021332
25 september, sat
sat2523:00+12se51236100 0.0 1020679
02:00+12se61233100 0.0 1019624
05:00+11se61334100 0.0 1017564
08:00+11se61434100 0.0 1015614
11:00+15se81325100 0.0 1014903
14:00+18sse81121100 0.0 10131366
17:00+16se61025100 0.0 1012895
20:00+14ese61336100 0.0 1013587
26 september, sun
sun2623:00+15se7142599 0.0 1011661
02:00+15se61332100 0.0 1009497
05:00+15ese5932100 0.0 1009376
08:00+11se51049100 0.3 1010575
11:00+9se3989100 2.3 1010532
14:00+12sse397288 1.1 1009736
17:00+15se4950100 1.1 10091070
20:00+12ese4940100 0.0 1009210
27 september, mon
mon2723:00+11ese71354100 0.0 1010762
02:00+8ese71382100 0.6 1011625
05:00+7ne4786100 1.6 1010436
08:00+6ene5871100 0.0 1011427
11:00+7ene6758100 0.0 1012971
14:00+7e6855100 0.0 10131072
17:00+8ene81144100 0.0 10141501
20:00+6ne5105258 0.0 1016423
28 september, tue
tue2823:00+5ne511445 0.0 1017373
02:00+3nne410625 0.0 1018284
05:000nne48742 0.0 1020175
08:000nne37792 0.0 1022213
11:00+5ne45505 0.0 1023991
14:00+9nne4636100 0.0 10221520
17:00+8n6740100 0.0 10231448
20:00+5n41050100 0.0 1024322